Location: Unspecified
(0.0000°N, 0.0000°E)
Time: 14:06:52
(UTC+00:00)

FORMOSAT 3A - Pass Details

Date: 18 May 2026
Orbit: 751 x 823 km, 72.0° (Epoch: 5 June)

Event Time Altitude Azimuth Distance (km) Brightness Sun altitude
Rises 20:23:27 0° 359° (N) 3,319 10.6 -34.3°
Reaches altitude 10° 20:26:00 10° 6° (N) 2,382 9.7 -34.9°
Enters shadow 20:26:07 11° 6° (N) 2,342 9.7 -34.9°
